Location: Newark
(40.7360°N, 74.1730°W)
Time: 02:17:43
(UTC-04:00)

Amateur Radio Satellites - All Passes

Search period start: 25 October 2014 01:47
Search period end: 26 October 2014 01:47
Location: Newark, 40.7360°N, 74.1730°W

Satellite Date Start Highest point End Downlink Frequencies (MHz)
Time Altitude Azimuth
JAS-1B 25 Oct 01:52:35 01:58:44 35° 98° (E) 02:05:52 435.800 - 435.900 CW/SSB
AO-Echo 25 Oct 01:57:01 02:00:47 19° 92° (E) 02:04:31 ?
Oscar 16 25 Oct 02:01:32 02:06:19 39° 98° (E) 02:11:05 437.025 USB, Beacon 2401.1428
RS-15 25 Oct 02:08:39 02:16:44 23° 342° (NNW) 02:24:56 29.354 - 29.394 USB, Beacon 29.352 USB
Uribyol 2 25 Oct 02:21:38 02:25:55 25° 95° (E) 02:30:10 436.500 FM
ITAMSAT 1 25 Oct 02:27:35 02:32:00 27° 95° (E) 02:36:23 435.822 SSB
Gurwin Techsat 1B 25 Oct 02:48:06 02:52:16 23° 94° (E) 02:56:24 435.225 FM
Oscar 19 25 Oct 02:54:48 02:59:53 67° 286° (WNW) 03:04:56 437.125 CW, 437.150 USB
TMSAT-1 25 Oct 02:59:23 03:03:24 22° 93° (E) 03:07:23 436.925 FM
AO-27 25 Oct 03:12:40 03:17:56 74° 103° (ESE) 03:23:08 436.795 MHz FM
AO-7 25 Oct 03:29:27 03:32:22 12° 87° (E) 03:35:17 29.400 - 29.500 MHz
AO-Echo 25 Oct 03:34:39 03:39:49 53° 288° (WNW) 03:44:58 ?
Oscar 16 25 Oct 03:41:19 03:45:27 25° 294° (WNW) 03:49:34 437.025 USB, Beacon 2401.1428
Sapphire 25 Oct 03:42:52 03:47:59 46° 112° (ESE) 03:53:09 437.095 MHz 1200 baud AX-25 AFSK
JAS-1B 25 Oct 03:43:08 03:49:22 45° 291° (WNW) 03:56:43 435.800 - 435.900 CW/SSB
Uribyol 2 25 Oct 04:00:40 04:05:28 39° 291° (WNW) 04:10:15 436.500 FM
PCSat 25 Oct 04:05:04 04:10:27 78° 117° (ESE) 04:15:54 145.825 MHz
ITAMSAT 1 25 Oct 04:06:46 04:11:32 36° 292° (WNW) 04:16:16 435.822 SSB
RS-15 25 Oct 04:26:26 04:34:38 23° 18° (NNE) 04:42:59 29.354 - 29.394 USB, Beacon 29.352 USB
Gurwin Techsat 1B 25 Oct 04:27:22 04:32:24 44° 290° (WNW) 04:37:24 435.225 FM
OPAL 25 Oct 04:28:54 04:33:29 34° 66° (ENE) 04:38:02 ?
TMSAT-1 25 Oct 04:38:27 04:43:32 47° 289° (WNW) 04:48:34 436.925 FM
AO-27 25 Oct 04:53:58 04:56:47 15° 300° (WNW) 04:59:36 436.795 MHz FM
JAS-2 25 Oct 05:11:10 05:17:06 23° 90° (E) 05:22:58 435.800 - 435.900 CW/SSB, 435.910 FM
AO-7 25 Oct 05:18:10 05:26:30 71° 105° (ESE) 05:34:49 29.400 - 29.500 MHz
Uosat F 25 Oct 05:19:37 05:24:40 66° 102° (ESE) 05:29:39 435.120 FM
Sapphire 25 Oct 05:27:02 05:31:36 27° 311° (NW) 05:36:13 437.095 MHz 1200 baud AX-25 AFSK
PCSat 25 Oct 05:50:49 05:54:30 18° 316° (NW) 05:58:13 145.825 MHz
OPAL 25 Oct 06:07:52 06:12:20 29° 262° (W) 06:16:46 ?
STRAND 1 25 Oct 06:13:37 06:18:13 34° 68° (ENE) 06:22:50 ?
Hamsat 25 Oct 06:22:11 06:26:09 40° 98° (E) 06:30:08 145.90 MHz
RS-15 25 Oct 06:39:21 06:50:15 55° 49° (NE) 07:01:34 29.354 - 29.394 USB, Beacon 29.352 USB
JAS-2 25 Oct 06:54:53 07:02:40 75° 287° (WNW) 07:10:26 435.800 - 435.900 CW/SSB, 435.910 FM
Uosat F 25 Oct 06:59:55 07:02:53 16° 299° (WNW) 07:05:50 435.120 FM
AO-7 25 Oct 07:11:57 07:18:35 28° 304° (NW) 07:25:15 29.400 - 29.500 MHz
Saudisat 1A 25 Oct 07:13:01 07:17:00 35° 115° (ESE) 07:21:00 436.775 MHz
SO-67 25 Oct 07:25:02 07:27:52 23° 95° (E) 07:30:41 435.3500 MHz FM
PANSAT 25 Oct 07:49:03 07:49:49 11° 169° (S) 07:50:34 not established
STRAND 1 25 Oct 07:53:01 07:57:24 28° 264° (W) 08:01:49 ?
Hamsat 25 Oct 07:59:03 08:01:47 17° 294° (WNW) 08:04:31 145.90 MHz
JAS-2 25 Oct 08:41:58 08:46:27 17° 305° (NW) 08:50:58 435.800 - 435.900 CW/SSB, 435.910 FM
RS-15 25 Oct 08:52:03 09:02:26 46° 250° (WSW) 09:13:16 29.354 - 29.394 USB, Beacon 29.352 USB
Saudisat 1A 25 Oct 08:52:54 08:56:37 26° 313° (NW) 09:00:21 436.775 MHz
SO-67 25 Oct 08:58:15 09:00:41 18° 291° (WNW) 09:03:07 435.3500 MHz FM
MaSat-1 25 Oct 09:03:15 09:05:37 30° 59° (ENE) 09:07:50 437.345 MHz
PANSAT 25 Oct 09:27:23 09:29:11 13° 182° (S) 09:31:00 not established
HO-68 25 Oct 09:29:01 09:35:51 44° 99° (E) 09:42:38 435.675 MHz FM
UKube-1 25 Oct 09:34:35 09:36:54 14° 92° (E) 09:39:13 145.840 MHz, 145.915 MHz
Oscar 11 25 Oct 10:14:21 10:18:21 36° 98° (E) 10:22:19 145.825 FM, Beacon 2401.500 USB
FUNcube-1 25 Oct 10:14:37 10:17:01 15° 91° (E) 10:19:23 145.950 - 145.970 MHz USB
KITSAT 1 25 Oct 11:03:39 11:09:45 24° 104° (ESE) 11:15:52 435.175 FM
ZACube-1 25 Oct 11:04:50 11:09:02 56° 100° (E) 11:13:07 437.345 MHz
UKube-1 25 Oct 11:09:08 11:13:23 51° 288° (WNW) 11:17:36 145.840 MHz, 145.915 MHz
PCSat 25 Oct 11:12:22 11:14:06 11° 37° (NE) 11:15:49 145.825 MHz
HO-68 25 Oct 11:16:58 11:23:23 37° 297° (WNW) 11:29:47 435.675 MHz FM
FUNcube-1 25 Oct 11:49:36 11:53:39 44° 288° (WNW) 11:57:37 145.950 - 145.970 MHz USB
Oscar 11 25 Oct 11:51:10 11:54:16 20° 294° (WNW) 11:57:21 145.825 FM, Beacon 2401.500 USB
ISS 25 Oct 12:22:18 12:25:24 38° 137° (SE) 12:28:32 145.800 FM
Sapphire 25 Oct 12:31:02 12:36:03 36° 53° (NE) 12:41:02 437.095 MHz 1200 baud AX-25 AFSK
Oscar 19 25 Oct 12:33:44 12:37:33 22° 64° (ENE) 12:41:23 437.125 CW, 437.150 USB
JAS-1B 25 Oct 12:40:22 12:44:52 23° 63° (ENE) 12:49:14 435.800 - 435.900 CW/SSB
ZACube-1 25 Oct 12:42:58 12:44:55 13° 297° (WNW) 12:46:50 437.345 MHz
Oscar 10/S400 25 Oct 12:44:45 13:02:58 30° 151° (SSE) 13:20:02 145.825 - 145.975 CW/USB, Beacon 145.810 USB
PCSat 25 Oct 12:53:20 12:58:43 58° 58° (ENE) 13:04:02 145.825 MHz
AO-27 25 Oct 12:54:11 12:56:56 15° 60° (ENE) 12:59:40 436.795 MHz FM
SO-50 25 Oct 12:54:36 12:59:02 64° 119° (ESE) 13:03:36 436.795 FM
KITSAT 1 25 Oct 12:56:18 13:04:22 73° 303° (WNW) 13:12:29 435.175 FM
AO-Echo 25 Oct 13:09:52 13:13:42 23° 65° (ENE) 13:17:37 ?
Oscar 16 25 Oct 13:18:07 13:23:09 56° 72° (ENE) 13:28:11 437.025 USB, Beacon 2401.1428
Uribyol 2 25 Oct 13:39:04 13:43:51 38° 69° (ENE) 13:48:40 436.500 FM
ITAMSAT 1 25 Oct 13:45:11 13:50:02 41° 69° (ENE) 13:54:54 435.822 SSB
ISS 25 Oct 13:59:11 14:02:09 29° 334° (NNW) 14:05:08 145.800 FM
Gurwin Techsat 1B 25 Oct 14:08:47 14:13:33 35° 68° (ENE) 14:18:21 435.225 FM
Oscar 19 25 Oct 14:11:36 14:16:33 47° 261° (W) 14:21:32 437.125 CW, 437.150 USB
Sapphire 25 Oct 14:14:35 14:19:23 33° 250° (WSW) 14:24:10 437.095 MHz 1200 baud AX-25 AFSK
UOSAT-12 25 Oct 14:15:10 14:19:27 39° 115° (ESE) 14:23:50 437.025 FM, 437.400 FM
TMSAT-1 25 Oct 14:19:42 14:24:23 33° 68° (ENE) 14:29:06 436.925 FM
AO-7 25 Oct 14:27:27 14:33:10 21° 52° (NE) 14:38:54 29.400 - 29.500 MHz
JAS-1B 25 Oct 14:29:35 14:35:19 45° 260° (W) 14:40:45 435.800 - 435.900 CW/SSB
AO-27 25 Oct 14:30:34 14:35:46 76° 257° (WSW) 14:41:02 436.795 MHz FM
SO-50 25 Oct 14:36:53 14:40:02 18° 319° (NW) 14:43:16 436.795 FM
PCSat 25 Oct 14:37:53 14:41:38 19° 255° (WSW) 14:45:22 145.825 MHz
AO-Echo 25 Oct 14:47:35 14:52:11 41° 262° (W) 14:56:57 ?
KITSAT 1 25 Oct 14:55:28 15:01:16 21° 326° (NW) 15:07:07 435.175 FM
Uosat F 25 Oct 14:58:11 14:59:35 11° 58° (ENE) 15:00:59 435.120 FM
Oscar 16 25 Oct 14:59:29 15:02:50 17° 268° (W) 15:06:11 437.025 USB, Beacon 2401.1428
Uribyol 2 25 Oct 15:19:04 15:23:23 26° 265° (W) 15:27:45 436.500 FM
ITAMSAT 1 25 Oct 15:25:27 15:29:38 24° 266° (W) 15:33:52 435.822 SSB
ISS 25 Oct 15:37:57 15:39:40 13° 354° (N) 15:41:23 145.800 FM
Saudisat 1A 25 Oct 15:39:46 15:43:38 29° 48° (NE) 15:47:29 436.775 MHz
Gurwin Techsat 1B 25 Oct 15:48:59 15:53:32 29° 265° (W) 15:58:07 435.225 FM
UOSAT-12 25 Oct 15:55:44 15:59:42 27° 314° (NW) 16:03:44 437.025 FM, 437.400 FM
TMSAT-1 25 Oct 15:59:37 16:04:16 31° 264° (W) 16:08:57 436.925 FM
AO-7 25 Oct 16:16:35 16:24:52 89° 71° (ENE) 16:33:13 29.400 - 29.500 MHz
Uosat F 25 Oct 16:32:32 16:37:33 87° 75° (ENE) 16:42:38 435.120 FM
JAS-2 25 Oct 17:06:45 17:12:27 48° 68° (ENE) 17:18:54 435.800 - 435.900 CW/SSB, 435.910 FM
ISS 25 Oct 17:15:10 17:17:24 16° 15° (NNE) 17:19:38 145.800 FM
Hamsat 25 Oct 17:15:26 17:19:02 28° 70° (ENE) 17:22:38 145.90 MHz
Saudisat 1A 25 Oct 17:19:15 17:23:11 32° 245° (WSW) 17:27:06 436.775 MHz
AO-7 25 Oct 18:13:26 18:18:38 18° 269° (W) 18:23:52 29.400 - 29.500 MHz
OPAL 25 Oct 18:17:11 18:22:09 73° 105° (ESE) 18:27:05 ?
STRAND 1 25 Oct 18:26:51 18:28:19 11° 89° (E) 18:29:48 ?
ISS 25 Oct 18:51:19 18:54:38 59° 33° (NNE) 18:57:56 145.800 FM
Hamsat 25 Oct 18:51:36 18:54:58 23° 265° (W) 18:58:20 145.90 MHz
JAS-2 25 Oct 18:52:55 18:57:50 27° 269° (W) 19:03:19 435.800 - 435.900 CW/SSB, 435.910 FM
KITSAT 1 25 Oct 18:55:28 19:00:20 17° 28° (NNE) 19:05:11 435.175 FM
SO-67 25 Oct 19:29:23 19:32:46 58° 260° (W) 19:36:10 435.3500 MHz FM
SO-50 25 Oct 19:48:20 19:49:28 11° 34° (NE) 19:50:36 436.795 FM
HO-68 25 Oct 19:57:40 20:03:52 33° 62° (ENE) 20:10:06 435.675 MHz FM
OPAL 25 Oct 19:57:52 20:00:25 14° 302° (WNW) 20:02:58 ?
STRAND 1 25 Oct 20:02:56 20:08:07 82° 285° (WNW) 20:13:15 ?
ISS 25 Oct 20:28:56 20:31:00 15° 229° (SW) 20:33:03 145.800 FM
UKube-1 25 Oct 20:30:35 20:32:36 13° 62° (ENE) 20:34:37 145.840 MHz, 145.915 MHz
KITSAT 1 25 Oct 20:49:55 20:57:49 54° 53° (NE) 21:05:40 435.175 FM
RS-15 25 Oct 21:04:23 21:13:34 32° 105° (ESE) 21:22:38 29.354 - 29.394 USB, Beacon 29.352 USB
Oscar 11 25 Oct 21:09:17 21:13:00 29° 69° (ENE) 21:16:43 145.825 FM, Beacon 2401.500 USB
FUNcube-1 25 Oct 21:11:10 21:13:33 14° 64° (ENE) 21:15:54 145.950 - 145.970 MHz USB
SO-50 25 Oct 21:26:18 21:31:05 55° 54° (NE) 21:35:52 436.795 FM
HO-68 25 Oct 21:44:26 21:51:18 49° 260° (W) 21:58:14 435.675 MHz FM
STRAND 1 25 Oct 21:45:17 21:46:27 11° 302° (WNW) 21:47:37 ?
ZACube-1 25 Oct 22:00:34 22:04:56 45° 72° (ENE) 22:09:15 437.345 MHz
UKube-1 25 Oct 22:03:57 22:08:15 61° 259° (WSW) 22:12:35 145.840 MHz, 145.915 MHz
MaSat-1 25 Oct 22:40:22 22:42:37 15° 106° (ESE) 22:44:47 437.345 MHz
FUNcube-1 25 Oct 22:44:54 22:49:26 61° 259° (W) 22:53:55 145.950 - 145.970 MHz USB
UOSAT-12 25 Oct 22:44:56 22:49:14 33° 49° (NE) 22:53:28 437.025 FM, 437.400 FM
Oscar 11 25 Oct 22:45:36 22:49:08 24° 265° (W) 22:52:42 145.825 FM, Beacon 2401.500 USB
KITSAT 1 25 Oct 22:45:47 22:52:54 36° 252° (WSW) 22:59:59 435.175 FM
SO-50 25 Oct 23:07:54 23:11:14 19° 250° (WSW) 23:14:34 436.795 FM
RS-15 25 Oct 23:14:02 23:24:59 70° 306° (NW) 23:35:57 29.354 - 29.394 USB, Beacon 29.352 USB
ZACube-1 25 Oct 23:38:30 23:41:31 17° 268° (W) 23:44:31 437.345 MHz
MaSat-1 26 Oct 00:14:02 00:17:58 44° 298° (WNW) 00:21:32 437.345 MHz
UOSAT-12 26 Oct 00:25:13 00:29:18 30° 247° (WSW) 00:33:19 437.025 FM, 437.400 FM
Oscar 16 26 Oct 01:31:00 01:34:42 20° 93° (E) 01:38:23 437.025 USB, Beacon 2401.1428
